| time (UTC) | temp F | wind direction | speed knots | gust knots | rain 1hr in | rain 24hr in | rain mn in | humidity % | barometer mb |
| 20260503021806 | 51 | 324 | 6.1 | 7.8 | 0.05 | 0.44 | 0.20 | 93 | 1000.7 |
| 20260503020907 | 51 | 321 | 6.1 | 7.8 | 0.05 | 0.44 | 0.20 | 93 | 1001.1 |
| 20260503020006 | 51 | 313 | 4.3 | 6.1 | 0.06 | 0.44 | 0.20 | 93 | 1001.1 |
| 20260503015615 | 51 | 306 | 4.3 | 5.2 | 0.07 | 0.44 | 0.20 | 93 | 1001.1 |
| 20260503014507 | 51 | 305 | 5.2 | 7.0 | 0.06 | 0.43 | 0.19 | 93 | 1001.3 |
| 20260503013820 | 51 | 309 | 4.3 | 7.0 | 0.05 | 0.41 | 0.18 | 93 | 1001.3 |
| 20260503012922 | 51 | 312 | 3.5 | 6.1 | 0.05 | 0.40 | 0.17 | 93 | 1001.5 |
| 20260503011805 | 51 | 314 | 4.3 | 7.0 | 0.05 | 0.39 | 0.15 | 93 | 1001.5 |
| 20260503010907 | 52 | 312 | 4.3 | 7.0 | 0.06 | 0.39 | 0.15 | 93 | 1001.6 |
| 20260503010013 | 52 | 318 | 3.5 | 5.2 | 0.07 | 0.38 | 0.14 | 93 | 1001.7 |
| 20260503005407 | 52 | 325 | 3.5 | 3.5 | 0.07 | 0.37 | 0.13 | 93 | 1001.8 |
| 20260503004507 | 52 | 322 | 3.5 | 3.5 | 0.07 | 0.37 | 0.13 | 93 | 1002.0 |
| 20260503003611 | 53 | 324 | 3.5 | 5.2 | 0.09 | 0.37 | 0.13 | 93 | 1002.0 |
| 20260503002709 | 53 | 321 | 2.6 | 3.5 | 0.08 | 0.35 | 0.12 | 92 | 1002.1 |
| 20260503001805 | 53 | 326 | 2.6 | 3.5 | 0.08 | 0.34 | 0.11 | 92 | 1002.0 |
| 20260503001118 | 53 | 311 | 2.6 | 5.2 | 0.08 | 0.33 | 0.09 | 92 | 1002.2 |
| 20260503000009 | 53 | 323 | 2.6 | 3.5 | 0.07 | 0.31 | 0.07 | 92 | 1002.2 |
| 20260502235616 | 53 | 324 | 1.7 | 3.5 | 0.07 | 0.31 | 0.07 | 92 | 1002.4 |
| 20260502234507 | 53 | 318 | 1.7 | 3.5 | 0.08 | 0.30 | 0.06 | 92 | 1002.3 |
| 20260502233606 | 53 | 314 | 2.6 | 3.5 | 0.08 | 0.27 | 0.04 | 92 | 1002.3 |
| 20260502232918 | 53 | 309 | 1.7 | 3.5 | 0.09 | 0.27 | 0.04 | 92 | 1002.5 |
| 20260502231805 | 53 | 304 | 1.7 | 3.5 | 0.09 | 0.26 | 0.02 | 92 | 1002.5 |
| 20260502230908 | 53 | 309 | 1.7 | 3.5 | 0.09 | 0.25 | 0.01 | 92 | 1002.7 |
| 20260502230014 | 53 | 315 | 1.7 | 1.7 | 0.09 | 0.24 | 0.00 | 91 | 1002.7 |
| 20260502225407 | 53 | 329 | 1.7 | 1.7 | 0.09 | 0.24 | 0.24 | 91 | 1002.4 |
| 20260502224507 | 53 | 331 | 0.9 | 1.7 | 0.07 | 0.21 | 0.21 | 91 | 1002.7 |
| 20260502223817 | 53 | 314 | 1.7 | 3.5 | 0.07 | 0.20 | 0.20 | 91 | 1002.8 |
| 20260502222709 | 53 | 317 | 2.6 | 3.5 | 0.05 | 0.17 | 0.17 | 91 | 1002.8 |
| 20260502221807 | 53 | 312 | 1.7 | 3.5 | 0.06 | 0.17 | 0.17 | 91 | 1002.7 |
| 20260502220906 | 53 | 318 | 3.5 | 3.5 | 0.05 | 0.15 | 0.15 | 91 | 1002.6 |
| 20260502220006 | 53 | 325 | 3.5 | 6.1 | 0.04 | 0.14 | 0.14 | 90 | 1002.5 |
| 20260502215618 | 53 | 324 | 2.6 | 5.2 | 0.04 | 0.14 | 0.14 | 90 | 1002.7 |
| 20260502214507 | 53 | 328 | 1.7 | 1.7 | 0.04 | 0.14 | 0.14 | 90 | 1002.7 |
| 20260502213605 | 53 | 328 | 2.6 | 3.5 | 0.04 | 0.13 | 0.13 | 90 | 1002.8 |
| 20260502212706 | 53 | 327 | 1.7 | 3.5 | 0.05 | 0.12 | 0.12 | 89 | 1003.0 |
| 20260502211805 | 53 | 312 | 1.7 | 3.5 | 0.05 | 0.11 | 0.11 | 89 | 1003.0 |
| 20260502210907 | 53 | 312 | 1.7 | 3.5 | 0.06 | 0.11 | 0.11 | 89 | 1003.1 |
| 20260502210007 | 53 | 313 | 0.9 | 1.7 | 0.07 | 0.11 | 0.11 | 88 | 1003.2 |
| 20260502205411 | 53 | 289 | 0.9 | 1.7 | 0.07 | 0.11 | 0.11 | 88 | 1003.0 |
| 20260502204505 | 54 | 254 | 0.9 | 1.7 | 0.07 | 0.11 | 0.11 | 88 | 1003.3 |
| 20260502203604 | 54 | 247 | 0.0 | 1.7 | 0.07 | 0.09 | 0.09 | 87 | 1003.3 |
| 20260502202705 | 54 | 0 | 0.0 | 0.0 | 0.06 | 0.07 | 0.07 | 87 | 1003.3 |
| 20260502201806 | 54 | 247 | 0.0 | 1.7 | 0.05 | 0.06 | 0.06 | 86 | 1003.5 |
| 20260502200907 | 54 | 247 | 0.0 | 1.7 | 0.04 | 0.05 | 0.05 | 85 | 1003.7 |
| 20260502200011 | 54 | 247 | 0.9 | 1.7 | 0.02 | 0.04 | 0.04 | 85 | 1003.6 |
| 20260502195407 | 54 | 253 | 0.9 | 1.7 | 0.02 | 0.04 | 0.04 | 84 | 1003.5 |
| 20260502194507 | 55 | 270 | 0.0 | 1.7 | 0.02 | 0.04 | 0.04 | 82 | 1003.6 |
| 20260502193605 | 55 | 257 | 0.9 | 1.7 | 0.01 | 0.02 | 0.02 | 81 | 1003.6 |
| 20260502192921 | 55 | 258 | 0.9 | 1.7 | 0.01 | 0.02 | 0.02 | 80 | 1003.5 |
| 20260502191807 | 56 | 268 | 0.9 | 1.7 | 0.00 | 0.01 | 0.01 | 79 | 1003.5 |
| 20260502190907 | 56 | 293 | 0.9 | 1.7 | 0.00 | 0.01 | 0.01 | 78 | 1003.4 |
| 20260502190008 | 56 | 288 | 1.7 | 1.7 | 0.00 | 0.01 | 0.01 | 77 | 1003.6 |
| 20260502185405 | 56 | 298 | 1.7 | 1.7 | 0.00 | 0.01 | 0.01 | 77 | 1003.4 |
| 20260502184505 | 56 | 281 | 1.7 | 3.5 | 0.00 | 0.01 | 0.01 | 76 | 1003.3 |
| 20260502183814 | 56 | 271 | 2.6 | 3.5 | 0.00 | 0.01 | 0.01 | 75 | 1003.5 |
| 20260502182707 | 56 | 303 | 2.6 | 3.5 | 0.00 | 0.01 | 0.01 | 74 | 1003.5 |
| 20260502181807 | 57 | 312 | 2.6 | 3.5 | 0.00 | 0.01 | 0.01 | 74 | 1003.4 |
| 20260502180905 | 57 | 329 | 1.7 | 1.7 | 0.00 | 0.01 | 0.01 | 73 | 1003.6 |
| 20260502180219 | 57 | 314 | 2.6 | 3.5 | 0.00 | 0.01 | 0.01 | 73 | 1003.5 |
| 20260502163610 | 59 | 302 | 4.3 | 6.1 | 0.00 | 0.02 | 0.01 | 69 | 1003.7 |
| 20260502162918 | 60 | 308 | 5.2 | 7.8 | 0.00 | 0.02 | 0.01 | 69 | 1003.7 |
| 20260502161805 | 60 | 320 | 3.5 | 7.0 | 0.00 | 0.02 | 0.01 | 68 | 1003.8 |
| 20260502160907 | 61 | 344 | 2.6 | 3.5 | 0.00 | 0.02 | 0.01 | 68 | 1003.9 |
| 20260502151807 | 63 | 22 | 1.7 | 3.5 | 0.00 | 0.04 | 0.01 | 59 | 1004.5 |
| 20260502150907 | 63 | 39 | 2.6 | 5.2 | 0.00 | 0.04 | 0.01 | 59 | 1004.5 |
| 20260502150215 | 63 | 355 | 4.3 | 6.1 | 0.00 | 0.04 | 0.01 | 59 | 1004.7 |
| 20260502123608 | 62 | 350 | 2.6 | 5.2 | 0.00 | 0.04 | 0.01 | 60 | 1006.0 |
| 20260502122920 | 62 | 345 | 1.7 | 3.5 | 0.00 | 0.04 | 0.01 | 59 | 1006.2 |
| 20260502121809 | 61 | 358 | 2.6 | 3.5 | 0.00 | 0.04 | 0.01 | 61 | 1006.3 |
| 20260502120906 | 61 | 289 | 1.7 | 3.5 | 0.00 | 0.04 | 0.01 | 62 | 1006.7 |
| 20260502115407 | 61 | 310 | 2.6 | 3.5 | 0.00 | 0.04 | 0.01 | 61 | 1006.6 |
| 20260502114508 | 62 | 276 | 2.6 | 3.5 | 0.00 | 0.04 | 0.01 | 61 | 1006.7 |
| 20260502113608 | 61 | 68 | 2.6 | 3.5 | 0.00 | 0.04 | 0.01 | 59 | 1006.9 |
| 20260502112705 | 62 | 148 | 3.5 | 5.2 | 0.00 | 0.04 | 0.01 | 59 | 1007.0 |
| 20260502112018 | 61 | 107 | 2.6 | 5.2 | 0.00 | 0.04 | 0.01 | 59 | 1007.1 |
| 20260502110907 | 61 | 95 | 2.6 | 3.5 | 0.00 | 0.04 | 0.01 | 62 | 1007.2 |
| 20260502110008 | 60 | 124 | 3.5 | 3.5 | 0.00 | 0.04 | 0.01 | 62 | 1007.1 |
| 20260502105407 | 59 | 114 | 2.6 | 3.5 | 0.00 | 0.04 | 0.01 | 64 | 1007.4 |
| 20260502104507 | 60 | 144 | 1.7 | 3.5 | 0.00 | 0.04 | 0.01 | 62 | 1007.4 |
| 20260502103607 | 59 | 121 | 2.6 | 3.5 | 0.00 | 0.04 | 0.01 | 63 | 1007.4 |
| 20260502102705 | 59 | 85 | 2.6 | 3.5 | 0.00 | 0.04 | 0.01 | 64 | 1007.1 |
| 20260502101116 | 58 | 179 | 1.7 | 3.5 | 0.00 | 0.04 | 0.01 | 65 | 1007.1 |
| 20260502091117 | 55 | 131 | 2.6 | 3.5 | 0.00 | 0.04 | 0.01 | 75 | 1008.0 |
| 20260502070910 | 49 | 119 | 1.7 | 3.5 | 0.00 | 0.04 | 0.01 | 88 | 1008.3 |
| 20260502070007 | 48 | 139 | 1.7 | 3.5 | 0.00 | 0.04 | 0.01 | 90 | 1008.1 |
| 20260502065405 | 47 | 128 | 2.6 | 3.5 | 0.00 | 0.04 | 0.01 | 90 | 1008.2 |
| 20260502064505 | 46 | 119 | 1.7 | 3.5 | 0.00 | 0.04 | 0.01 | 90 | 1008.2 |
| 20260502063605 | 46 | 120 | 1.7 | 1.7 | 0.01 | 0.04 | 0.01 | 91 | 1008.3 |
| 20260502062707 | 45 | 112 | 0.9 | 1.7 | 0.01 | 0.04 | 0.01 | 92 | 1008.2 |
| 20260502062016 | 44 | 120 | 1.7 | 1.7 | 0.01 | 0.04 | 0.01 | 92 | 1008.2 |
| 20260502061119 | 44 | 124 | 0.0 | 1.7 | 0.01 | 0.04 | 0.01 | 92 | 1008.1 |
| 20260502060216 | 44 | 120 | 0.0 | 1.7 | 0.01 | 0.04 | 0.01 | 92 | 1008.3 |
| 20260502055406 | 44 | 131 | 0.9 | 1.7 | 0.01 | 0.04 | 0.01 | 92 | 1008.2 |
| 20260502054507 | 43 | 135 | 0.9 | 1.7 | 0.01 | 0.04 | 0.01 | 92 | 1008.2 |
| 20260502053605 | 43 | 153 | 0.9 | 1.7 | 0.00 | 0.02 | 0.00 | 92 | 1008.3 |
| 20260502052708 | 43 | 143 | 0.9 | 1.7 | 0.00 | 0.02 | 0.00 | 92 | 1008.2 |
| 20260502051807 | 42 | 0 | 0.0 | 0.0 | 0.00 | 0.02 | 0.00 | 92 | 1007.9 |
| 20260502050907 | 42 | 157 | 0.0 | 1.7 | 0.00 | 0.02 | 0.00 | 92 | 1008.1 |
| 20260502050006 | 43 | 157 | 0.9 | 1.7 | 0.00 | 0.02 | 0.00 | 92 | 1008.2 |
| 20260502045618 | 43 | 157 | 0.0 | 1.7 | 0.00 | 0.02 | 0.00 | 92 | 1008.2 |
| 20260502044505 | 43 | 0 | 0.0 | 0.0 | 0.00 | 0.02 | 0.00 | 92 | 1008.0 |
| 20260502043607 | 43 | 138 | 0.0 | 1.7 | 0.00 | 0.02 | 0.00 | 92 | 1008.0 |
| 20260502042915 | 43 | 146 | 0.0 | 1.7 | 0.00 | 0.02 | 0.00 | 92 | 1008.0 |
| 20260502041806 | 43 | 0 | 0.0 | 0.0 | 0.00 | 0.02 | 0.00 | 91 | 1008.1 |
| 20260502040907 | 44 | 135 | 0.9 | 1.7 | 0.00 | 0.02 | 0.00 | 91 | 1008.1 |
| 20260502040011 | 44 | 140 | 0.0 | 1.7 | 0.00 | 0.02 | 0.00 | 91 | 1008.2 |
| 20260502035408 | 44 | 0 | 0.0 | 0.0 | 0.00 | 0.02 | 0.00 | 91 | 1008.3 |
| 20260502034507 | 44 | 0 | 0.0 | 0.0 | 0.00 | 0.02 | 0.00 | 91 | 1008.2 |
| 20260502033819 | 44 | 202 | 0.0 | 1.7 | 0.00 | 0.02 | 0.00 | 91 | 1008.4 |
| 20260502032705 | 45 | 202 | 0.0 | 1.7 | 0.00 | 0.02 | 0.00 | 91 | 1008.4 |
| 20260502032018 | 45 | 168 | 0.0 | 1.7 | 0.00 | 0.02 | 0.00 | 90 | 1008.2 |
| 20260502030907 | 45 | 180 | 0.0 | 1.7 | 0.00 | 0.02 | 0.00 | 90 | 1008.5 |
| 20260502030223 | 45 | 140 | 0.0 | 1.7 | 0.00 | 0.02 | 0.00 | 90 | 1008.2 |
| 20260502025405 | 46 | 101 | 0.0 | 1.7 | 0.00 | 0.02 | 0.00 | 90 | 1008.4 |
| 20260502024507 | 46 | 0 | 0.0 | 0.0 | 0.00 | 0.02 | 0.00 | 90 | 1008.4 |
| 20260502023608 | 46 | 202 | 0.0 | 1.7 | 0.00 | 0.02 | 0.00 | 90 | 1008.4 |
| 20260502022709 | 46 | 186 | 0.9 | 1.7 | 0.00 | 0.02 | 0.00 | 89 | 1008.6 |